Weather History for Peoria, IL

Change the Weather History Date:

Saturday, May 14, 2011

  Actual Average Record
Temperature  
Mean Temperature 53 °F 62 °F  
Max Temperature 56 °F 73 °F 93 °F (1887)
Min Temperature 49 °F 51 °F 34 °F (1920)
Degree Days  
Heating Degree Days 12 5  
Month to date heating degree days 100 90  
Since 1 July heating degree days 5871 5755  
Cooling Degree Days 0 2  
Month to date cooling degree days 52 18  
Year to date cooling degree days 64 32  
Growing Degree Days 4 (Base 50)    
Moisture  
Dew Point 50 °F    
Average Humidity 95    
Maximum Humidity 100    
Minimum Humidity 89    
Precipitation  
Precipitation 1.03 in 0.14 in 1.66 in (1941)
Month to date precipitation 1.76 1.96  
Year to date precipitation 14.80 11.96  
Snow  
Snow 0.00 in 0.00 in 0.00 in ()
Month to date snowfall 0.0 0.0  
Since 1 July snowfall 52.5 24.6  
Snow Depth 0.00 in    
Sea Level Pressure  
Sea Level Pressure 29.73 in    
Wind  
Wind Speed 7 mph (North)    
Max Wind Speed 15 mph    
Max Gust Speed 26 mph    
Visibility 6 miles    
Events Rain    
T = Trace of Precipitation, MM = Missing Value Source: NWS Daily Summary

Daily Weather History Graph

Daily Weather History Graph

Search for Another Location

Airport:

Trip Planner

Search our weather history database for the weather conditions in past years. The results will help you decide how hot, cold, wet, or windy it might be!

Date:

Astronomy

May. 14, 2011 Rise Set
Actual Time 5:42 AM CDT 8:07 PM CDT
Civil Twilight 5:12 AM CDT 8:38 PM CDT
Nautical Twilight 4:33 AM CDT 9:17 PM CDT
Astronomical Twilight 3:51 AM CDT 9:59 PM CDT
Moon 5:13 PM CDT (5/14) 3:30 AM CDT (5/14)
Length of Visible Light 15h 26m
Length of Day
14h 24m
Waxing Gibbous, 89% of the Moon is Illuminated
May 14
Waxing Gibbous
May 17
Full
May 24
Last Quarter
Jun 1
New
Jun 8
First Quarter

Hourly Weather History & Observations

Time (CDT) Temp. Dew Point Humidity Pressure Visibility Wind Dir Wind Speed Gust Speed Precip Events Conditions
12:06 AM 57.2 °F 55.4 °F 94% 29.71 in 9.0 mi NNE 4.6 mph - 0.00 in Rain Light Rain
12:23 AM 57.2 °F 53.6 °F 88% 29.71 in 9.0 mi North 8.1 mph 16.1 mph 0.00 in Rain Light Rain
12:31 AM 57.2 °F 53.6 °F 88% 29.72 in 10.0 mi North 8.1 mph - 0.00 in Rain Light Rain
12:54 AM 55.9 °F 53.1 °F 90% 29.71 in 10.0 mi North 6.9 mph - 0.00 in   Overcast
1:16 AM 55.4 °F 53.6 °F 94% 29.72 in 10.0 mi Variable 4.6 mph - 0.00 in Rain Light Rain
1:35 AM 55.4 °F 51.8 °F 88% 29.71 in 6.0 mi NNE 5.8 mph 17.3 mph 0.00 in Rain Rain
1:54 AM 54.0 °F 52.0 °F 93% 29.70 in 4.0 mi Variable 5.8 mph - 0.06 in Rain Rain
2:18 AM 53.6 °F 51.8 °F 94% 29.70 in 6.0 mi NNE 4.6 mph - 0.06 in Rain Rain
2:25 AM 53.6 °F 51.8 °F 94% 29.70 in 6.0 mi North 4.6 mph - 0.07 in Rain Rain
2:34 AM 53.6 °F 51.8 °F 94% 29.70 in 6.0 mi NNE 4.6 mph - 0.08 in Rain Rain
2:54 AM 54.0 °F 52.0 °F 93% 29.69 in 4.0 mi NNE 5.8 mph - 0.11 in Rain Rain
3:39 AM 53.6 °F 51.8 °F 94% 29.69 in 4.0 mi NNE 10.4 mph 17.3 mph 0.10 in Rain Rain
3:47 AM 53.6 °F 51.8 °F 94% 29.69 in 5.0 mi NNE 10.4 mph 17.3 mph 0.11 in Rain Light Rain
3:54 AM 53.1 °F 51.1 °F 93% 29.68 in 5.0 mi NNE 6.9 mph 16.1 mph 0.12 in Rain Rain
4:02 AM 53.6 °F 51.8 °F 94% 29.69 in 5.0 mi NNE 12.7 mph 19.6 mph 0.02 in Rain Rain
4:54 AM 52.0 °F 48.9 °F 89% 29.70 in 6.0 mi NNE 9.2 mph - 0.07 in Rain Rain
5:10 AM 51.8 °F 48.2 °F 88% 29.71 in 6.0 mi NNE 6.9 mph - 0.02 in Rain Light Rain
5:18 AM 51.8 °F 48.2 °F 88% 29.71 in 6.0 mi NNE 6.9 mph - 0.03 in Rain Light Rain
5:54 AM 51.1 °F 48.9 °F 92% 29.72 in 5.0 mi Variable 6.9 mph - 0.07 in Rain Rain
6:54 AM 51.1 °F 48.9 °F 92% 29.72 in 3.0 mi Variable 6.9 mph - 0.08 in Rain Rain
7:39 AM 51.8 °F 50.0 °F 94% 29.72 in 4.0 mi North 5.8 mph - 0.04 in Rain Light Rain
7:54 AM 52.0 °F 50.0 °F 93% 29.73 in 5.0 mi Variable 4.6 mph - 0.05 in Rain Light Rain
8:16 AM 51.8 °F 50.0 °F 94% 29.72 in 6.0 mi North 6.9 mph - 0.02 in Rain Light Rain
8:30 AM 51.8 °F 50.0 °F 94% 29.72 in 5.0 mi Variable 4.6 mph - 0.04 in Rain Rain
8:54 AM 52.0 °F 50.0 °F 93% 29.73 in 6.0 mi North 9.2 mph - 0.06 in Rain Light Rain
9:43 AM 51.8 °F 48.2 °F 88% 29.73 in 10.0 mi North 8.1 mph 17.3 mph 0.02 in Rain Light Rain
9:54 AM 51.1 °F 48.9 °F 92% 29.74 in 10.0 mi North 10.4 mph 18.4 mph 0.02 in Rain Light Rain
10:54 AM 50.0 °F 50.0 °F 100% 29.74 in 4.0 mi North 8.1 mph - 0.03 in Rain Light Rain
11:04 AM 50.0 °F 50.0 °F 100% 29.74 in 4.0 mi North 9.2 mph - N/A Rain Rain
11:54 AM 50.0 °F 48.2 °F 94% 29.75 in 9.0 mi NNW 5.8 mph - N/A Rain Light Rain
12:23 PM 50.0 °F 48.2 °F 94% 29.75 in 1.8 mi Variable 5.8 mph - 0.01 in Rain Light Rain
12:36 PM 50.0 °F 48.2 °F 94% 29.74 in 3.0 mi NNW 8.1 mph - 0.03 in Rain Light Rain
12:54 PM 51.1 °F 48.9 °F 92% 29.74 in 10.0 mi North 8.1 mph - 0.04 in Rain Light Rain
1:16 PM 51.8 °F 48.2 °F 88% 29.73 in 10.0 mi NNW 8.1 mph - 0.00 in Rain Light Rain
1:24 PM 51.8 °F 48.2 °F 88% 29.74 in 10.0 mi NNW 8.1 mph - 0.00 in Rain Light Rain
1:36 PM 51.8 °F 48.2 °F 88% 29.74 in 10.0 mi NNW 6.9 mph - 0.00 in Rain Light Rain
1:54 PM 51.1 °F 48.0 °F 89% 29.74 in 8.0 mi NNW 6.9 mph - 0.00 in Rain Light Rain
2:40 PM 51.8 °F 48.2 °F 88% 29.73 in 10.0 mi NNW 8.1 mph 16.1 mph 0.01 in   Overcast
2:54 PM 51.1 °F 48.9 °F 92% 29.74 in 7.0 mi NW 8.1 mph - 0.01 in Rain Light Rain
3:54 PM 51.1 °F 48.9 °F 92% 29.73 in 6.0 mi NNW 8.1 mph - 0.03 in Rain Light Rain
4:04 PM 51.8 °F 48.2 °F 88% 29.73 in 4.0 mi NNW 6.9 mph - 0.00 in Rain Light Rain
4:33 PM 51.8 °F 48.2 °F 88% 29.73 in 6.0 mi NNW 8.1 mph - 0.00 in Rain Light Rain
4:54 PM 51.1 °F 50.0 °F 96% 29.74 in 9.0 mi NNW 6.9 mph - 0.00 in Rain Light Rain
5:50 PM 51.8 °F 50.0 °F 94% 29.73 in 2.5 mi NW 6.9 mph - 0.02 in Rain Rain
5:54 PM 52.0 °F 50.0 °F 93% 29.74 in 2.5 mi NNW 6.9 mph - 0.03 in Rain Light Rain
5:57 PM 51.8 °F 50.0 °F 94% 29.73 in 3.0 mi Variable 6.9 mph - 0.01 in Rain Light Rain
6:09 PM 51.8 °F 50.0 °F 94% 29.73 in 4.0 mi NNW 5.8 mph - 0.01 in Rain Light Rain
6:41 PM 51.8 °F 50.0 °F 94% 29.74 in 9.0 mi North 6.9 mph 24.2 mph 0.01 in   Overcast
6:54 PM 52.0 °F 50.0 °F 93% 29.74 in 5.0 mi NNW 6.9 mph - 0.02 in Rain Light Rain
7:04 PM 51.8 °F 50.0 °F 94% 29.74 in 4.0 mi NNW 4.6 mph - 0.00 in Rain Light Rain
7:39 PM 51.8 °F 50.0 °F 94% 29.75 in 2.0 mi NNW 6.9 mph - N/A Rain Rain
7:54 PM 52.0 °F 50.0 °F 93% 29.75 in 1.8 mi North 6.9 mph - 0.05 in Rain Rain
7:59 PM 51.8 °F 50.0 °F 94% 29.75 in 3.0 mi North 6.9 mph - 0.01 in Rain Light Rain
8:12 PM 51.8 °F 50.0 °F 94% 29.76 in 5.0 mi North 9.2 mph - 0.01 in Rain Light Rain
8:35 PM 51.8 °F 48.2 °F 88% 29.76 in 10.0 mi NNE 11.5 mph 19.6 mph 0.02 in Rain Light Rain
8:43 PM 51.8 °F 48.2 °F 88% 29.76 in 10.0 mi North 9.2 mph 18.4 mph 0.02 in Rain Light Rain
8:54 PM 51.8 °F 48.2 °F 88% 29.76 in 10.0 mi North 6.9 mph 16.1 mph N/A Rain Light Rain
9:00 PM 51.8 °F 50.0 °F 94% 29.76 in 9.0 mi North 5.8 mph - 0.00 in Rain Light Rain
9:18 PM 51.8 °F 48.2 °F 88% 29.77 in 10.0 mi North 10.4 mph - 0.00 in Rain Light Rain
9:32 PM 51.8 °F 48.2 °F 88% 29.77 in 10.0 mi North 9.2 mph 16.1 mph 0.00 in Rain Light Rain
9:52 PM 51.8 °F 48.2 °F 88% 29.77 in 9.0 mi North 8.1 mph 19.6 mph 0.00 in Rain Light Rain
9:54 PM 51.1 °F 48.9 °F 92% 29.78 in 9.0 mi North 8.1 mph 19.6 mph 0.00 in Rain Light Rain
10:24 PM 51.8 °F 48.2 °F 88% 29.77 in 10.0 mi North 9.2 mph 19.6 mph 0.01 in Rain Light Rain
10:35 PM 50.0 °F 48.2 °F 94% 29.77 in 9.0 mi NNE 11.5 mph 23.0 mph 0.01 in Rain Light Rain
10:54 PM 50.0 °F 48.0 °F 93% 29.78 in 6.0 mi Variable 6.9 mph - 0.01 in Rain Light Rain
11:54 PM 48.2 °F 46.4 °F 93% 29.76 in 5.0 mi North 8.1 mph 17.3 mph N/A Rain Light Rain